Location: Newark
(21.0333°N, 105.8500°E)
Time: 23:18:13
(UTC+00:00)

Envisat - Pass Details

Date: 17 December 2019
Orbit: 764 x 766 km, 98.1° (Epoch: 21 January)

Event Time Altitude Azimuth Distance (km) Brightness Sun altitude
Rises 11:27:52 0° 179° (S) 3,215 6.5 -15.9°
Reaches altitude 10° 11:30:14 10° 185° (S) 2,291 5.8 -16.4°
Maximum altitude 11:35:07 50° 260° (W) 971 3.9 -17.5°
Drops below altitude 10° 11:40:01 10° 335° (NNW) 2,298 5.5 -18.6°
Sets 11:42:23 0° 340° (NNW) 3,226 6.3 -19.1°
